Home > Weather > Rio de Janeiro > Past weeks

Flag for Brazil Weather for the Past 2 Weeks in Rio de Janeiro, Rio de Janeiro, Brazil

Now
79 °F

Partly cloudy.


Feels Like: 82 °F
Forecast: N/A
Wind: 7 mph from Southeast

Location: Rio De Janeiro Airport

Current Time: Feb 7, 2016 at 9:08:51 PM

Latest Report: Feb 7, 2016 at 8:00 PM


Visibility: N/A

Pressure: 29.95 "Hg

Humidity: 89%

Dew point: 75 °F

Location of Rio de JaneiroLocation

Historic Weather in Rio de Janeiro — Graph

°F

Rio de Janeiro Temperature Yesterday

Maximum temperature yesterday: 93 °F (at 1:00 PM)
Minimum temperature yesterday: 79 °F (at 4:00 AM)
Average temperature yesterday: 85 °F

High & Low Weather Summary for the Past Weeks

 TemperatureHumidityPressure
High99 °F (Jan 31, 2:00 PM)100% (Jan 26, 12:00 AM)30.01 "Hg (Jan 26, 12:00 AM)
Low45 °F (Jan 28, 5:00 PM)18% (Jan 28, 2:00 PM)29.71 "Hg (Jan 26, 5:00 PM)
Average83 °F79%29.91 "Hg
* Reported Jan 23 8:00 PM — Feb 7 8:00 PM, Rio de Janeiro, Weather by CustomWeather, © 2016

Note: Actual official high and low records may vary slightly from our data, if they occured in-between our weather recording intervals... More about our weather records

Advertising

Rio de Janeiro Weather History for the Previous 24 Hours

 ConditionsComfort  
Time TempWeatherWind HumidityBarometerVisibility
8:00 PM
Sun, Feb 7
79 °FPartly cloudy.7 mph89%29.95 "HgN/A
7:00 PM81 °FBroken clouds.8 mph89%29.95 "HgN/A
6:00 PM81 °FBroken clouds.10 mph89%29.95 "HgN/A
5:00 PM82 °FBroken clouds.13 mph84%29.95 "HgN/A
4:00 PM84 °FPartly sunny.12 mph74%29.95 "HgN/A
3:00 PM86 °FPartly sunny.13 mph75%29.95 "HgN/A
2:00 PM88 °FPassing clouds.13 mph70%29.98 "HgN/A
1:00 PM88 °FPartly sunny.13 mph70%30.01 "HgN/A
12:00 PM86 °FScattered clouds.10 mph79%30.01 "HgN/A
11:00 AM86 °FScattered clouds.10 mph79%30.01 "HgN/A
10:00 AM86 °FScattered clouds.5 mph75%30.01 "HgN/A
9:00 AM82 °FScattered clouds.No wind84%30.01 "HgN/A
8:00 AM79 °FScattered clouds.2 mph94%29.98 "HgN/A
7:00 AM77 °FSunny.No wind94%29.98 "Hg10 mi
6:00 AM77 °FClear.2 mph94%29.95 "Hg10 mi
5:00 AM77 °FClear.3 mph94%29.95 "Hg10 mi
4:00 AM79 °FClear.3 mph89%29.95 "Hg10 mi
3:00 AM77 °FClear.2 mph94%29.98 "Hg10 mi
2:00 AM79 °FClear.3 mph89%30.01 "Hg10 mi
1:00 AM81 °FClear.6 mph79%30.01 "Hg10 mi
12:00 AM79 °FClear.5 mph94%30.01 "Hg10 mi
11:00 PM
Sat, Feb 6
81 °FClear.5 mph84%30.01 "Hg10 mi
10:00 PM82 °FPassing clouds.3 mph79%29.98 "HgN/A
9:00 PM82 °FPassing clouds.9 mph79%29.98 "HgN/A
Weather by CustomWeather, © 2016

See weather overviewHow to use our weather pages